Year,Month,Day,Hour,Minute,Value (Times are PST for temperature in C)
2016,10,20,00,00,10.80
2016,10,20,00,01,10.80
2016,10,20,00,02,10.80
2016,10,20,00,03,10.80
2016,10,20,00,04,10.80
2016,10,20,00,05,10.80
2016,10,20,00,06,10.80
2016,10,20,00,07,10.80
2016,10,20,00,08,10.80
2016,10,20,00,09,10.80
2016,10,20,00,10,10.80
2016,10,20,00,11,10.80
2016,10,20,00,12,10.80
2016,10,20,00,13,10.80
2016,10,20,00,14,10.80
2016,10,20,00,15,10.80
2016,10,20,00,16,10.80
2016,10,20,00,17,10.80
2016,10,20,00,18,10.70
2016,10,20,00,19,10.70
2016,10,20,00,20,10.70
2016,10,20,00,21,10.70
2016,10,20,00,22,10.70
2016,10,20,00,23,10.70
2016,10,20,00,24,10.70
2016,10,20,00,25,10.70
2016,10,20,00,26,10.70
2016,10,20,00,27,10.70
2016,10,20,00,28,10.70
2016,10,20,00,29,10.70
2016,10,20,00,30,10.70
2016,10,20,00,31,10.70
2016,10,20,00,32,10.60
2016,10,20,00,33,10.60
2016,10,20,00,34,10.60
2016,10,20,00,35,10.60
2016,10,20,00,36,10.60
2016,10,20,00,37,10.60
2016,10,20,00,38,10.60
2016,10,20,00,39,10.60
2016,10,20,00,40,10.60
2016,10,20,00,41,10.60
2016,10,20,00,42,10.60
2016,10,20,00,43,10.60
2016,10,20,00,44,10.60
2016,10,20,00,45,10.60
2016,10,20,00,46,10.60
2016,10,20,00,47,10.60
2016,10,20,00,48,10.60
2016,10,20,00,49,10.60
2016,10,20,00,50,10.60
2016,10,20,00,51,10.60
2016,10,20,00,52,10.60
2016,10,20,00,53,10.60
2016,10,20,00,54,10.60
2016,10,20,00,55,10.60
2016,10,20,00,56,10.60
2016,10,20,00,57,10.60
2016,10,20,00,58,10.60
2016,10,20,00,59,10.60
2016,10,20,01,00,10.60
2016,10,20,01,01,10.60
2016,10,20,01,02,10.60
2016,10,20,01,03,10.60
2016,10,20,01,04,10.60
2016,10,20,01,05,10.60
2016,10,20,01,06,10.60
2016,10,20,01,07,10.50
2016,10,20,01,08,10.50
2016,10,20,01,09,10.50
2016,10,20,01,10,10.50
2016,10,20,01,11,10.50
2016,10,20,01,12,10.50
2016,10,20,01,13,10.50
2016,10,20,01,14,10.50
2016,10,20,01,15,10.50
2016,10,20,01,16,10.50
2016,10,20,01,17,10.50
2016,10,20,01,18,10.60
2016,10,20,01,19,10.60
2016,10,20,01,20,10.60
2016,10,20,01,21,10.60
2016,10,20,01,22,10.60
2016,10,20,01,23,10.60
2016,10,20,01,24,10.60
2016,10,20,01,25,10.60
2016,10,20,01,26,10.60
2016,10,20,01,27,10.70
2016,10,20,01,28,10.70
2016,10,20,01,29,10.70
2016,10,20,01,30,10.70
2016,10,20,01,31,10.70
2016,10,20,01,32,10.70
2016,10,20,01,33,10.70
2016,10,20,01,34,10.70
2016,10,20,01,35,10.80
2016,10,20,01,36,10.80
2016,10,20,01,37,10.80
2016,10,20,01,38,10.80
2016,10,20,01,39,10.80
2016,10,20,01,40,10.80
2016,10,20,01,41,10.80
2016,10,20,01,42,10.80
2016,10,20,01,43,10.80
2016,10,20,01,44,10.80
2016,10,20,01,45,10.80
2016,10,20,01,46,10.80
2016,10,20,01,47,10.90
2016,10,20,01,48,10.90
2016,10,20,01,49,10.90
2016,10,20,01,50,10.90
2016,10,20,01,51,10.90
2016,10,20,01,52,10.90
2016,10,20,01,53,10.90
2016,10,20,01,54,10.90
2016,10,20,01,55,10.90
2016,10,20,01,56,10.90
2016,10,20,01,57,10.90
2016,10,20,01,58,10.90
2016,10,20,01,59,10.90
2016,10,20,02,00,10.90
2016,10,20,02,01,10.90
2016,10,20,02,02,10.90
2016,10,20,02,03,10.90
2016,10,20,02,04,10.90
2016,10,20,02,05,10.90
2016,10,20,02,06,10.90
2016,10,20,02,07,10.90
2016,10,20,02,08,10.90
2016,10,20,02,09,10.90
2016,10,20,02,10,10.90
2016,10,20,02,11,10.90
2016,10,20,02,12,10.90
2016,10,20,02,13,10.90
2016,10,20,02,14,10.90
2016,10,20,02,15,10.90
2016,10,20,02,16,10.90
2016,10,20,02,17,10.90
2016,10,20,02,18,10.90
2016,10,20,02,19,10.90
2016,10,20,02,20,10.90
2016,10,20,02,21,10.90
2016,10,20,02,22,10.90
2016,10,20,02,23,10.90
2016,10,20,02,24,10.90
2016,10,20,02,25,10.90
2016,10,20,02,26,10.90
2016,10,20,02,27,10.90
2016,10,20,02,28,10.90
2016,10,20,02,29,10.90
2016,10,20,02,30,10.90
2016,10,20,02,31,10.90
2016,10,20,02,32,10.90
2016,10,20,02,33,10.90
2016,10,20,02,34,10.90
2016,10,20,02,35,10.90
2016,10,20,02,36,10.90
2016,10,20,02,37,10.90
2016,10,20,02,38,10.90
2016,10,20,02,39,10.90
2016,10,20,02,40,10.90
2016,10,20,02,41,10.90
2016,10,20,02,42,10.90
2016,10,20,02,43,10.90
2016,10,20,02,44,10.90
2016,10,20,02,45,10.90
2016,10,20,02,46,10.90
2016,10,20,02,47,10.90
2016,10,20,02,48,10.90
2016,10,20,02,49,10.90
2016,10,20,02,50,10.90
2016,10,20,02,51,10.90
2016,10,20,02,52,10.90
2016,10,20,02,53,10.90
2016,10,20,02,54,10.90
2016,10,20,02,55,10.90
2016,10,20,02,56,10.90
2016,10,20,02,57,10.90
2016,10,20,02,58,10.90
2016,10,20,02,59,10.90
2016,10,20,03,00,10.90
2016,10,20,03,01,10.90
2016,10,20,03,02,10.90
2016,10,20,03,03,10.90
2016,10,20,03,04,10.90
2016,10,20,03,05,10.90
2016,10,20,03,06,10.90
2016,10,20,03,07,10.90
2016,10,20,03,08,10.90
2016,10,20,03,09,10.90
2016,10,20,03,10,10.90
2016,10,20,03,11,10.90
2016,10,20,03,12,10.90
2016,10,20,03,13,10.90
2016,10,20,03,14,10.90
2016,10,20,03,15,10.90
2016,10,20,03,16,10.90
2016,10,20,03,17,10.90
2016,10,20,03,18,10.90
2016,10,20,03,19,10.90
2016,10,20,03,20,10.90
2016,10,20,03,21,10.90
2016,10,20,03,22,10.90
2016,10,20,03,23,10.90
2016,10,20,03,24,10.90
2016,10,20,03,25,10.90
2016,10,20,03,26,10.90
2016,10,20,03,27,10.90
2016,10,20,03,28,10.90
2016,10,20,03,29,10.90
2016,10,20,03,30,10.90
2016,10,20,03,31,10.90
2016,10,20,03,32,10.90
2016,10,20,03,33,10.90
2016,10,20,03,34,10.90
2016,10,20,03,35,10.90
2016,10,20,03,36,10.90
2016,10,20,03,37,10.90
2016,10,20,03,38,10.90
2016,10,20,03,39,10.90
2016,10,20,03,40,10.90
2016,10,20,03,41,10.90
2016,10,20,03,42,10.90
2016,10,20,03,43,10.90
2016,10,20,03,44,10.90
2016,10,20,03,45,10.90
2016,10,20,03,46,10.90
2016,10,20,03,47,10.90
2016,10,20,03,48,10.90
2016,10,20,03,49,10.90
2016,10,20,03,50,10.90
2016,10,20,03,51,10.90
2016,10,20,03,52,10.90
2016,10,20,03,53,10.90
2016,10,20,03,54,10.90
2016,10,20,03,55,10.90
2016,10,20,03,56,10.90
2016,10,20,03,57,10.90
2016,10,20,03,58,10.90
2016,10,20,03,59,10.90
2016,10,20,04,00,10.90
2016,10,20,04,01,10.90
2016,10,20,04,02,10.90
2016,10,20,04,03,10.90
2016,10,20,04,04,10.90
2016,10,20,04,05,10.90
2016,10,20,04,06,10.90
2016,10,20,04,07,10.90
2016,10,20,04,08,10.90
2016,10,20,04,09,10.90
2016,10,20,04,10,10.90
2016,10,20,04,11,10.90
2016,10,20,04,12,10.90
2016,10,20,04,13,10.90
2016,10,20,04,14,10.90
2016,10,20,04,15,10.90
2016,10,20,04,16,10.90
2016,10,20,04,17,10.90
2016,10,20,04,18,10.90
2016,10,20,04,19,10.90
2016,10,20,04,20,10.90
2016,10,20,04,21,10.90
2016,10,20,04,22,10.90
2016,10,20,04,23,10.90
2016,10,20,04,24,10.90
2016,10,20,04,25,11.00
2016,10,20,04,26,10.90
2016,10,20,04,27,10.90
2016,10,20,04,28,10.90
2016,10,20,04,29,10.90
2016,10,20,04,30,10.90
2016,10,20,04,31,11.00
2016,10,20,04,32,11.00
2016,10,20,04,33,11.00
2016,10,20,04,34,11.00
2016,10,20,04,35,11.00
2016,10,20,04,36,11.00
2016,10,20,04,37,11.00
2016,10,20,04,38,11.00
2016,10,20,04,39,11.00
2016,10,20,04,40,11.00
2016,10,20,04,41,11.00
2016,10,20,04,42,11.00
2016,10,20,04,43,11.00
2016,10,20,04,44,11.00
2016,10,20,04,45,11.00
2016,10,20,04,46,11.00
2016,10,20,04,47,11.00
2016,10,20,04,48,11.00
2016,10,20,04,49,11.00
2016,10,20,04,50,11.00
2016,10,20,04,51,11.00
2016,10,20,04,52,11.00
2016,10,20,04,53,11.00
2016,10,20,04,54,11.00
2016,10,20,04,55,11.00
2016,10,20,04,56,11.00
2016,10,20,04,57,11.00
2016,10,20,04,58,11.00
2016,10,20,04,59,11.00
2016,10,20,05,00,11.00
2016,10,20,05,01,11.00
2016,10,20,05,02,11.00
2016,10,20,05,03,11.00
2016,10,20,05,04,11.00
2016,10,20,05,05,11.00
2016,10,20,05,06,11.00
2016,10,20,05,07,11.00
2016,10,20,05,08,11.00
2016,10,20,05,09,11.00
2016,10,20,09,23,11.20
2016,10,20,09,24,11.30
2016,10,20,09,25,11.30
2016,10,20,09,26,11.30
2016,10,20,09,27,11.30
2016,10,20,09,28,11.40
2016,10,20,09,29,11.40
2016,10,20,09,30,11.50
2016,10,20,09,31,11.50
2016,10,20,09,32,11.60
2016,10,20,09,33,11.60
2016,10,20,09,34,11.70
2016,10,20,09,35,11.70
2016,10,20,09,36,11.80
2016,10,20,09,37,11.80
2016,10,20,09,38,11.80
2016,10,20,09,39,11.90
2016,10,20,09,40,11.90
2016,10,20,09,41,12.00
2016,10,20,09,42,12.10
2016,10,20,09,43,12.10
2016,10,20,09,44,12.20
2016,10,20,09,45,12.20
2016,10,20,09,46,12.30
2016,10,20,09,47,12.30
2016,10,20,09,48,12.40
2016,10,20,09,49,12.40
2016,10,20,09,50,12.40
2016,10,20,09,51,12.40
2016,10,20,09,52,12.50
2016,10,20,09,53,12.50
2016,10,20,09,54,12.60
2016,10,20,09,55,12.60
2016,10,20,09,56,12.70
2016,10,20,09,57,12.70
2016,10,20,09,58,12.70
2016,10,20,09,59,12.80
2016,10,20,10,00,12.80
2016,10,20,10,01,12.90
2016,10,20,10,02,12.90
2016,10,20,10,03,13.00
2016,10,20,10,04,13.00
2016,10,20,10,05,13.10
2016,10,20,10,06,13.10
2016,10,20,10,07,13.20
2016,10,20,10,08,13.20
2016,10,20,10,09,13.20
2016,10,20,10,10,13.30
2016,10,20,10,11,13.30
2016,10,20,10,12,13.30
2016,10,20,10,13,13.30
2016,10,20,10,14,13.40
2016,10,20,10,15,13.40
2016,10,20,10,16,13.40
2016,10,20,10,17,13.40
2016,10,20,10,18,13.40
2016,10,20,10,19,13.40
2016,10,20,10,20,13.40
2016,10,20,10,21,13.30
2016,10,20,10,22,13.40
2016,10,20,10,23,13.30
2016,10,20,10,24,13.30
2016,10,20,10,25,13.40
2016,10,20,10,26,13.40
2016,10,20,10,27,13.40
2016,10,20,10,28,13.40
2016,10,20,10,29,13.40
2016,10,20,10,30,13.40
2016,10,20,10,31,13.40
2016,10,20,10,32,13.50
2016,10,20,10,33,13.50
2016,10,20,10,34,13.50
2016,10,20,10,35,13.60
2016,10,20,10,36,13.60
2016,10,20,10,37,13.60
2016,10,20,10,38,13.70
2016,10,20,10,39,13.70
2016,10,20,10,40,13.70
2016,10,20,10,41,13.80
2016,10,20,10,42,13.80
2016,10,20,10,43,13.90
2016,10,20,10,44,13.90
2016,10,20,10,45,13.90
2016,10,20,10,46,14.00
2016,10,20,10,47,14.00
2016,10,20,10,48,14.10
2016,10,20,10,49,14.10
2016,10,20,10,50,14.10
2016,10,20,10,51,14.20
2016,10,20,10,52,14.20
2016,10,20,10,53,14.20
2016,10,20,10,54,14.20
2016,10,20,10,55,14.30
2016,10,20,10,56,14.30
2016,10,20,10,57,14.30
2016,10,20,10,58,14.30
2016,10,20,10,59,14.40
2016,10,20,11,00,14.40
2016,10,20,11,01,14.40
2016,10,20,11,02,14.50
2016,10,20,11,03,14.50
2016,10,20,11,04,14.60
2016,10,20,11,05,14.60
2016,10,20,11,06,14.70
2016,10,20,11,07,14.70
2016,10,20,11,08,14.70
2016,10,20,11,09,14.80
2016,10,20,11,10,14.80
2016,10,20,11,11,14.80
2016,10,20,11,12,14.90
2016,10,20,11,13,14.90
2016,10,20,11,14,15.00
2016,10,20,11,15,15.00
2016,10,20,11,16,15.10
2016,10,20,11,17,15.10
2016,10,20,11,18,15.10
2016,10,20,11,19,15.10
2016,10,20,11,20,15.20
2016,10,20,11,21,15.20
2016,10,20,11,22,15.20
2016,10,20,11,23,15.20
2016,10,20,11,24,15.20
2016,10,20,11,25,15.30
2016,10,20,11,26,15.30
2016,10,20,11,27,15.30
2016,10,20,11,28,15.40
2016,10,20,11,29,15.40
2016,10,20,11,30,15.40
2016,10,20,11,31,15.50
2016,10,20,11,32,15.50
2016,10,20,11,33,15.50
2016,10,20,11,34,15.60
2016,10,20,11,35,15.60
2016,10,20,11,36,15.60
2016,10,20,11,37,15.70
2016,10,20,11,38,15.70
2016,10,20,11,39,15.70
2016,10,20,11,40,15.80
2016,10,20,11,41,15.80
2016,10,20,11,42,15.80
2016,10,20,11,43,15.90
2016,10,20,11,44,15.90
2016,10,20,11,45,15.90
2016,10,20,11,46,16.00
2016,10,20,11,47,16.10
2016,10,20,11,48,16.10
2016,10,20,11,49,16.10
2016,10,20,11,50,16.10
2016,10,20,11,51,16.10
2016,10,20,11,52,16.20
2016,10,20,11,53,16.20
2016,10,20,11,54,16.20
2016,10,20,11,55,16.20
2016,10,20,11,56,16.20
2016,10,20,11,57,16.20
2016,10,20,11,58,16.20
2016,10,20,11,59,16.20
2016,10,20,12,00,16.20
2016,10,20,12,01,16.20
2016,10,20,12,02,16.20
2016,10,20,12,03,16.10
2016,10,20,12,04,16.10
2016,10,20,12,05,16.10
2016,10,20,12,06,16.10
2016,10,20,12,07,16.10
2016,10,20,12,08,16.10
2016,10,20,12,09,16.00
2016,10,20,12,10,16.00
2016,10,20,12,11,16.00
2016,10,20,12,12,15.90
2016,10,20,12,13,15.90
2016,10,20,12,14,15.90
2016,10,20,12,15,15.90
2016,10,20,12,16,15.90
2016,10,20,12,17,15.80
2016,10,20,12,18,15.80
2016,10,20,12,19,15.80
2016,10,20,12,20,15.80
2016,10,20,12,21,15.80
2016,10,20,12,22,15.80
2016,10,20,12,23,15.80
2016,10,20,12,24,15.80
2016,10,20,12,25,15.80
2016,10,20,12,26,15.80
2016,10,20,12,27,15.80
2016,10,20,12,28,15.70
2016,10,20,12,29,15.70
2016,10,20,12,30,15.70
2016,10,20,12,31,15.70
2016,10,20,12,32,15.70
2016,10,20,12,33,15.70
2016,10,20,12,34,15.60
2016,10,20,12,35,15.60
2016,10,20,12,36,15.60
2016,10,20,12,37,15.60
2016,10,20,12,38,15.50
2016,10,20,12,39,15.50
2016,10,20,12,40,15.50
2016,10,20,12,41,15.40
2016,10,20,12,42,15.40
2016,10,20,12,43,15.30
2016,10,20,12,44,15.30
2016,10,20,12,45,15.30
2016,10,20,12,46,15.30
2016,10,20,12,47,15.20
2016,10,20,12,48,15.20
2016,10,20,12,49,15.20
2016,10,20,12,50,15.20
2016,10,20,12,51,15.20
2016,10,20,12,52,15.20
2016,10,20,12,53,15.20
2016,10,20,12,54,15.20
2016,10,20,12,55,15.30
2016,10,20,12,56,15.30
2016,10,20,12,57,15.30
2016,10,20,12,58,15.30
2016,10,20,12,59,15.30
2016,10,20,13,00,15.30
2016,10,20,13,01,15.40
2016,10,20,13,02,15.40
2016,10,20,13,03,15.40
2016,10,20,13,04,15.50
2016,10,20,13,05,15.50
2016,10,20,13,06,15.60
2016,10,20,13,07,15.60
2016,10,20,13,08,15.60
2016,10,20,13,09,15.70
2016,10,20,13,10,15.70
2016,10,20,13,11,15.70
2016,10,20,13,12,15.70
2016,10,20,13,13,15.70
2016,10,20,13,14,15.80
2016,10,20,13,15,15.80
2016,10,20,13,16,15.80
2016,10,20,13,17,15.80
2016,10,20,13,18,15.80
2016,10,20,13,19,15.80
2016,10,20,13,20,15.80
2016,10,20,13,21,15.90
2016,10,20,13,22,15.90
2016,10,20,13,23,15.90
2016,10,20,13,24,15.90
2016,10,20,13,25,15.80
2016,10,20,13,26,15.80
2016,10,20,13,27,15.80
2016,10,20,13,28,15.70
2016,10,20,13,29,15.70
2016,10,20,13,30,15.60
2016,10,20,13,31,15.60
2016,10,20,13,32,15.50
2016,10,20,13,33,15.50
2016,10,20,13,34,15.40
2016,10,20,13,35,15.40
2016,10,20,13,36,15.30
2016,10,20,13,37,15.30
2016,10,20,13,38,15.30
2016,10,20,13,39,15.30
2016,10,20,13,40,15.30
2016,10,20,13,41,15.30
2016,10,20,13,42,15.30
2016,10,20,13,43,15.30
2016,10,20,13,44,15.30
2016,10,20,13,45,15.30
2016,10,20,13,46,15.30
2016,10,20,13,47,15.20
2016,10,20,13,48,15.20
2016,10,20,13,49,15.20
2016,10,20,13,50,15.10
2016,10,20,13,51,15.10
2016,10,20,13,52,15.00
2016,10,20,13,53,15.00
2016,10,20,13,54,14.90
2016,10,20,13,55,14.80
2016,10,20,13,56,14.80
2016,10,20,13,57,14.70
2016,10,20,13,58,14.70
2016,10,20,13,59,14.60
2016,10,20,14,00,14.60
2016,10,20,14,01,14.60
2016,10,20,14,02,14.60
2016,10,20,14,03,14.60
2016,10,20,14,04,14.60
2016,10,20,14,05,14.60
2016,10,20,14,06,14.60
2016,10,20,14,07,14.60
2016,10,20,14,08,14.60
2016,10,20,14,09,14.70
2016,10,20,14,10,14.70
2016,10,20,14,11,14.70
2016,10,20,14,12,14.70
2016,10,20,14,13,14.70
2016,10,20,14,14,14.70
2016,10,20,14,15,14.70
2016,10,20,14,16,14.70
2016,10,20,14,17,14.70
2016,10,20,14,18,14.70
2016,10,20,14,19,14.70
2016,10,20,14,20,14.70
2016,10,20,14,21,14.70
2016,10,20,14,22,14.70
2016,10,20,14,23,14.70
2016,10,20,14,24,14.70
2016,10,20,14,25,14.80
2016,10,20,14,26,14.80
2016,10,20,14,27,14.80
2016,10,20,14,28,14.80
2016,10,20,14,29,14.80
2016,10,20,14,30,14.80
2016,10,20,14,31,14.80
2016,10,20,14,32,14.80
2016,10,20,14,33,14.80
2016,10,20,14,34,14.80
2016,10,20,14,35,14.80
2016,10,20,14,36,14.90
2016,10,20,14,37,14.90
2016,10,20,14,38,14.90
2016,10,20,14,39,14.90
2016,10,20,14,40,14.90
2016,10,20,14,41,15.00
2016,10,20,14,42,15.00
2016,10,20,14,43,14.90
2016,10,20,14,44,14.90
2016,10,20,14,45,14.90
2016,10,20,14,46,14.90
2016,10,20,14,47,14.90
2016,10,20,14,48,14.90
2016,10,20,14,49,14.90
2016,10,20,14,50,14.90
2016,10,20,14,51,14.90
2016,10,20,14,52,14.90
2016,10,20,14,53,14.90
2016,10,20,14,54,14.90
2016,10,20,14,55,14.80
2016,10,20,14,56,14.80
2016,10,20,14,57,14.80
2016,10,20,14,58,14.80
2016,10,20,14,59,14.80
2016,10,20,15,00,14.80
2016,10,20,15,01,14.80
2016,10,20,15,02,14.70
2016,10,20,15,03,14.70
2016,10,20,15,04,14.70
2016,10,20,15,05,14.70
2016,10,20,15,06,14.70
2016,10,20,15,07,14.70
2016,10,20,15,08,14.70
2016,10,20,15,09,14.70
2016,10,20,15,10,14.70
2016,10,20,15,11,14.70
2016,10,20,15,12,14.70
2016,10,20,15,13,14.70
2016,10,20,15,14,14.80
2016,10,20,15,15,14.80
2016,10,20,15,16,14.80
2016,10,20,15,17,14.80
2016,10,20,15,18,14.80
2016,10,20,15,19,14.80
2016,10,20,15,20,14.80
2016,10,20,15,21,14.80
2016,10,20,15,22,14.80
2016,10,20,15,23,14.80
2016,10,20,15,24,14.80
2016,10,20,15,25,14.80
2016,10,20,15,26,14.80
2016,10,20,15,27,14.80
2016,10,20,15,28,14.80
2016,10,20,15,29,14.90
2016,10,20,15,30,14.90
2016,10,20,15,31,15.00
2016,10,20,15,32,15.00
2016,10,20,15,33,15.10
2016,10,20,15,34,15.20
2016,10,20,15,35,15.20
2016,10,20,15,36,15.30
2016,10,20,15,37,15.30
2016,10,20,15,38,15.40
2016,10,20,15,39,15.40
2016,10,20,15,40,15.50
2016,10,20,15,41,15.50
2016,10,20,15,42,15.60
2016,10,20,15,43,15.60
2016,10,20,15,44,15.70
2016,10,20,15,45,15.70
2016,10,20,15,46,15.80
2016,10,20,15,47,15.80
2016,10,20,15,48,15.90
2016,10,20,15,49,15.90
2016,10,20,15,50,15.90
2016,10,20,15,51,16.00
2016,10,20,15,52,16.00
2016,10,20,15,53,16.10
2016,10,20,15,54,16.10
2016,10,20,15,55,16.10
2016,10,20,15,56,16.10
2016,10,20,15,57,16.20
2016,10,20,15,58,16.20
2016,10,20,15,59,16.20
2016,10,20,16,00,16.20
2016,10,20,16,01,16.20
2016,10,20,16,02,16.20
2016,10,20,16,03,16.10
2016,10,20,16,04,16.10
2016,10,20,16,05,16.10
2016,10,20,16,06,16.10
2016,10,20,16,07,16.20
2016,10,20,16,08,16.20
2016,10,20,16,09,16.20
2016,10,20,16,10,16.20
2016,10,20,16,11,16.20
2016,10,20,16,12,16.20
2016,10,20,16,13,16.20
2016,10,20,16,14,16.20
2016,10,20,16,15,16.30
2016,10,20,16,16,16.30
2016,10,20,16,17,16.30
2016,10,20,16,18,16.30
2016,10,20,16,19,16.30
2016,10,20,16,20,16.30
2016,10,20,16,21,16.30
2016,10,20,16,22,16.30
2016,10,20,16,23,16.30
2016,10,20,16,24,16.30
2016,10,20,16,25,16.30
2016,10,20,16,26,16.30
2016,10,20,16,27,16.30
2016,10,20,16,28,16.30
2016,10,20,16,29,16.30
2016,10,20,16,30,16.30
2016,10,20,16,31,16.30
2016,10,20,16,32,16.30
2016,10,20,16,33,16.30
2016,10,20,16,34,16.30
2016,10,20,16,35,16.30
2016,10,20,16,36,16.30
2016,10,20,16,37,16.30
2016,10,20,16,38,16.30
2016,10,20,16,39,16.30
2016,10,20,16,40,16.30
2016,10,20,16,41,16.30
2016,10,20,16,42,16.30
2016,10,20,16,43,16.20
2016,10,20,16,44,16.20
2016,10,20,16,45,16.20
2016,10,20,16,46,16.20
2016,10,20,16,47,16.20
2016,10,20,16,48,16.20
2016,10,20,16,49,16.20
2016,10,20,16,50,16.20
2016,10,20,16,51,16.20
2016,10,20,16,52,16.20
2016,10,20,16,53,16.10
2016,10,20,16,54,16.10
2016,10,20,16,55,16.10
2016,10,20,16,56,16.00
2016,10,20,16,57,16.00
2016,10,20,16,58,16.00
2016,10,20,16,59,15.90
2016,10,20,17,00,15.90
2016,10,20,17,01,15.90
2016,10,20,17,02,15.90
2016,10,20,17,03,15.90
2016,10,20,17,04,15.80
2016,10,20,17,05,15.80
2016,10,20,17,06,15.80
2016,10,20,17,07,15.70
2016,10,20,17,08,15.70
2016,10,20,17,09,15.70
2016,10,20,17,10,15.60
2016,10,20,17,11,15.60
2016,10,20,17,12,15.60
2016,10,20,17,13,15.60
2016,10,20,17,14,15.50
2016,10,20,17,15,15.50
2016,10,20,17,16,15.50
2016,10,20,17,17,15.40
2016,10,20,17,18,15.40
2016,10,20,17,19,15.40
2016,10,20,17,20,15.40
2016,10,20,17,21,15.30
2016,10,20,17,22,15.30
2016,10,20,17,23,15.30
2016,10,20,17,24,15.20
2016,10,20,17,25,15.20
2016,10,20,17,26,15.20
2016,10,20,17,27,15.10
2016,10,20,17,28,15.10
2016,10,20,17,29,15.00
2016,10,20,17,30,15.00
2016,10,20,17,31,14.90
2016,10,20,17,32,14.90
2016,10,20,17,33,14.80
2016,10,20,17,34,14.80
2016,10,20,17,35,14.70
2016,10,20,17,36,14.70
2016,10,20,17,37,14.70
2016,10,20,17,38,14.60
2016,10,20,17,39,14.60
2016,10,20,17,40,14.50
2016,10,20,17,41,14.50
2016,10,20,17,42,14.40
2016,10,20,17,43,14.40
2016,10,20,17,44,14.40
2016,10,20,17,45,14.30
2016,10,20,17,46,14.30
2016,10,20,17,47,14.30
2016,10,20,17,48,14.20
2016,10,20,17,49,14.20
2016,10,20,17,50,14.20
2016,10,20,17,51,14.10
2016,10,20,17,52,14.10
2016,10,20,17,53,14.10
2016,10,20,17,54,14.00
2016,10,20,17,55,14.00
2016,10,20,17,56,13.90
2016,10,20,17,57,13.80
2016,10,20,17,58,13.80
2016,10,20,17,59,13.80
2016,10,20,18,00,13.70
2016,10,20,18,01,13.70
2016,10,20,18,02,13.70
2016,10,20,18,03,13.60
2016,10,20,18,04,13.60
2016,10,20,18,05,13.50
2016,10,20,18,06,13.50
2016,10,20,18,07,13.40
2016,10,20,18,08,13.40
2016,10,20,18,09,13.30
2016,10,20,18,10,13.30
2016,10,20,18,11,13.30
2016,10,20,18,12,13.20
2016,10,20,18,13,13.20
2016,10,20,18,14,13.10
2016,10,20,18,15,13.10
2016,10,20,18,16,13.00
2016,10,20,18,17,12.90
2016,10,20,18,18,12.90
2016,10,20,18,19,12.80
2016,10,20,18,20,12.80
2016,10,20,18,21,12.80
2016,10,20,18,22,12.70
2016,10,20,18,23,12.70
2016,10,20,18,24,12.70
2016,10,20,18,25,12.60
2016,10,20,18,26,12.60
2016,10,20,18,27,12.60
2016,10,20,18,28,12.50
2016,10,20,18,29,12.40
2016,10,20,18,30,12.40
2016,10,20,18,31,12.30
2016,10,20,18,32,12.30
2016,10,20,18,33,12.30
2016,10,20,18,34,12.30
2016,10,20,18,35,12.20
2016,10,20,18,36,12.20
2016,10,20,18,37,12.20
2016,10,20,18,38,12.20
2016,10,20,18,39,12.10
2016,10,20,18,40,12.10
2016,10,20,18,41,12.10
2016,10,20,18,42,12.10
2016,10,20,18,43,12.00
2016,10,20,18,44,12.00
2016,10,20,18,45,11.90
2016,10,20,18,46,11.90
2016,10,20,18,47,11.90
2016,10,20,18,48,11.90
2016,10,20,18,49,11.90
2016,10,20,18,50,11.90
2016,10,20,18,51,11.90
2016,10,20,18,52,12.00
2016,10,20,18,53,12.00
2016,10,20,18,54,12.10
2016,10,20,18,55,12.10
2016,10,20,18,56,12.10
2016,10,20,18,57,12.10
2016,10,20,18,58,12.10
2016,10,20,18,59,12.10
2016,10,20,19,00,12.10
2016,10,20,19,01,12.10
2016,10,20,19,02,12.10
2016,10,20,19,03,12.10
2016,10,20,19,04,12.10
2016,10,20,19,05,12.10
2016,10,20,19,06,12.10
2016,10,20,19,07,12.10
2016,10,20,19,08,12.10
2016,10,20,19,09,12.10
2016,10,20,19,10,12.10
2016,10,20,19,11,12.10
2016,10,20,19,12,12.10
2016,10,20,19,13,12.10
2016,10,20,19,14,12.10
2016,10,20,19,15,12.00
2016,10,20,19,16,12.00
2016,10,20,19,17,12.00
2016,10,20,19,18,11.90
2016,10,20,19,19,11.90
2016,10,20,19,20,11.90
2016,10,20,19,21,11.80
2016,10,20,19,22,11.80
2016,10,20,19,23,11.80
2016,10,20,19,24,11.70
2016,10,20,19,25,11.70
2016,10,20,19,26,11.60
2016,10,20,19,27,11.60
2016,10,20,19,28,11.50
2016,10,20,19,29,11.50
2016,10,20,19,30,11.40
2016,10,20,19,31,11.40
2016,10,20,19,32,11.30
2016,10,20,19,33,11.30
2016,10,20,19,34,11.20
2016,10,20,19,35,11.20
2016,10,20,19,36,11.20
2016,10,20,19,37,11.10
2016,10,20,19,38,11.10
2016,10,20,19,39,11.00
2016,10,20,19,40,11.00
2016,10,20,19,41,10.90
2016,10,20,19,42,10.90
2016,10,20,19,43,10.80
2016,10,20,19,44,10.80
2016,10,20,19,45,10.70
2016,10,20,19,46,10.70
2016,10,20,19,47,10.70
2016,10,20,19,48,10.70
2016,10,20,19,49,10.60
2016,10,20,19,50,10.60
2016,10,20,19,51,10.60
2016,10,20,19,52,10.50
2016,10,20,19,53,10.50
2016,10,20,19,54,10.50
2016,10,20,19,55,10.40
2016,10,20,19,56,10.40
2016,10,20,19,57,10.40
2016,10,20,19,58,10.40
2016,10,20,19,59,10.30
2016,10,20,20,00,10.30
2016,10,20,20,01,10.30
2016,10,20,20,02,10.30
2016,10,20,20,03,10.20
2016,10,20,20,04,10.20
2016,10,20,20,05,10.20
2016,10,20,20,06,10.20
2016,10,20,20,07,10.10
2016,10,20,20,08,10.10
2016,10,20,20,09,10.10
2016,10,20,20,10,10.10
2016,10,20,20,11,10.00
2016,10,20,20,12,10.00
2016,10,20,20,13,10.00
2016,10,20,20,14,9.90
2016,10,20,20,15,9.90
2016,10,20,20,16,9.90
2016,10,20,20,17,9.90
2016,10,20,20,18,9.80
2016,10,20,20,19,9.80
2016,10,20,20,20,9.80
2016,10,20,20,21,9.80
2016,10,20,20,22,9.80
2016,10,20,20,23,9.80
2016,10,20,20,24,9.80
2016,10,20,20,25,9.80
2016,10,20,20,26,9.80
2016,10,20,20,27,9.70
2016,10,20,20,28,9.70
2016,10,20,20,29,9.70
2016,10,20,20,30,9.70
2016,10,20,20,31,9.70
2016,10,20,20,32,9.70
2016,10,20,20,33,9.70
2016,10,20,20,34,9.60
2016,10,20,20,35,9.60
2016,10,20,20,36,9.60
2016,10,20,20,37,9.60
2016,10,20,20,38,9.60
2016,10,20,20,39,9.60
2016,10,20,20,40,9.60
2016,10,20,20,41,9.60
2016,10,20,20,42,9.60
2016,10,20,20,43,9.60
2016,10,20,20,44,9.60
2016,10,20,20,45,9.60
2016,10,20,20,46,9.60
2016,10,20,20,47,9.60
2016,10,20,20,48,9.50
2016,10,20,20,49,9.50
2016,10,20,20,50,9.50
2016,10,20,20,51,9.50
2016,10,20,20,52,9.50
2016,10,20,20,53,9.50
2016,10,20,20,54,9.40
2016,10,20,20,55,9.40
2016,10,20,20,56,9.40
2016,10,20,20,57,9.40
2016,10,20,20,58,9.40
2016,10,20,20,59,9.30
2016,10,20,21,00,9.30
2016,10,20,21,01,9.30
2016,10,20,21,02,9.30
2016,10,20,21,03,9.30
2016,10,20,21,04,9.20
2016,10,20,21,05,9.20
2016,10,20,21,06,9.20
2016,10,20,21,07,9.20
2016,10,20,21,08,9.20
2016,10,20,21,09,9.10
2016,10,20,21,10,9.10
2016,10,20,21,11,9.10
2016,10,20,21,12,9.10
2016,10,20,21,13,9.10
2016,10,20,21,14,9.10
2016,10,20,21,15,9.10
2016,10,20,21,16,9.10
2016,10,20,21,17,9.10
2016,10,20,21,18,9.10
2016,10,20,21,19,9.10
2016,10,20,21,20,9.10
2016,10,20,21,21,9.10
2016,10,20,21,22,9.10
2016,10,20,21,23,9.10
2016,10,20,21,24,9.10
2016,10,20,21,25,9.00
2016,10,20,21,26,9.00
2016,10,20,21,27,9.00
2016,10,20,21,28,9.00
2016,10,20,21,29,9.00
2016,10,20,21,30,8.90
2016,10,20,21,31,8.90
2016,10,20,21,32,8.90
2016,10,20,21,33,8.90
2016,10,20,21,34,8.90
2016,10,20,21,35,8.90
2016,10,20,21,36,8.90